Flag for United Kingdom Weather past 2 weeks in Leicester, England, United Kingdom

Now
48 °F

Sprinkles. Passing clouds.


Feels Like: 43 °F
Forecast: 41 / 59 °F
Wind: 12 mph from Southwest

Location: East Midlands

Current Time: May 29, 2015 at 4:10:12 AM

Latest Report: May 29, 2015 at 3:20 AM


Visibility: N/A

Pressure: 29.80 "Hg

Humidity: 87%

Dew point: 45 °F

Location of LeicesterLocation

Historic Weather in Leicester — Graph

°F

Leicester temperature yesterday

Maximum temperature yesterday: 59 °F (at 1:20 PM)
Minimum temperature yesterday: 46 °F (at 5:50 AM)
Average temperature yesterday: 53 °F

Past Weeks' High & Low Weather Summary

 TemperatureHumidityPressure
High68 °F (May 22, 2:50 PM)100% (May 14, 4:20 AM)30.33 "Hg (May 14, 4:20 AM)
Low39 °F (May 27, 3:50 AM)42% (May 28, 5:50 PM)29.47 "Hg (May 19, 2:20 AM)
Average52 °F73%30.06 "Hg
* Reported May 14 3:20 AM — May 29 3:20 AM, Leicester, Weather by CustomWeather, © 2015

Note: Actual official high and low records may vary slightly from our data, if they occured in-between our weather recording intervals... More about our weather records

Advertising

Leicester weather history for previous 24 hours

 ConditionsComfort  
Time TempWeatherWind HumidityBarometerVisibility
3:20 AM
Fri, May 29
48 °FSprinkles. Passing clouds.12 mph87%29.80 "HgN/A
2:20 AM50 °FPassing clouds.13 mph71%29.83 "HgN/A
1:50 AM50 °FClear.8 mph71%29.83 "Hg10 mi
1:20 AM50 °FClear.13 mph71%29.86 "Hg10 mi
12:50 AM48 °FClear.9 mph76%29.86 "Hg10 mi
12:20 AM48 °FClear.10 mph71%29.89 "Hg10 mi
10:50 PM
Thu, May 28
50 °FClear.9 mph67%29.89 "Hg10 mi
10:20 PM50 °FClear.10 mph67%29.89 "Hg10 mi
9:50 PM50 °FSunny.9 mph67%29.89 "Hg10 mi
9:20 PM50 °FSunny.10 mph67%29.89 "Hg10 mi
8:50 PM52 °FSunny.14 mph58%29.89 "Hg10 mi
8:20 PM54 °FPassing clouds.13 mph54%29.89 "HgN/A
7:50 PM55 °FPassing clouds.18 mph51%29.89 "HgN/A
7:20 PM55 °FScattered clouds.15 mph51%29.89 "HgN/A
6:50 PM57 °FSunny.15 mph48%29.92 "Hg10 mi
6:20 PM55 °FSunny.18 mph47%29.92 "Hg10 mi
5:50 PM59 °FScattered clouds.18 mph42%29.92 "HgN/A
5:20 PM59 °FScattered clouds.16 mph45%29.92 "HgN/A
4:50 PM59 °FScattered clouds.20 mph45%29.92 "HgN/A
4:20 PM57 °FScattered clouds.17 mph48%29.92 "HgN/A
3:50 PM55 °FScattered clouds.22 mph51%29.92 "HgN/A
3:20 PM59 °FScattered clouds.21 mph48%29.92 "HgN/A
2:50 PM57 °FScattered clouds.16 mph51%29.92 "HgN/A
2:20 PM55 °FScattered clouds.18 mph55%29.92 "HgN/A
1:20 PM59 °FScattered clouds.18 mph48%29.92 "HgN/A
12:50 PM55 °FScattered clouds.15 mph59%29.92 "HgN/A
11:50 AM54 °FScattered showers. Scattered clouds.20 mph58%29.92 "HgN/A
11:20 AM57 °FScattered clouds.17 mph55%29.92 "HgN/A
10:50 AM55 °FScattered clouds.18 mph55%29.92 "HgN/A
10:20 AM54 °FScattered clouds.17 mph58%29.92 "HgN/A
9:50 AM54 °FScattered clouds.16 mph63%29.92 "HgN/A
8:50 AM50 °FScattered clouds.16 mph71%29.92 "HgN/A
7:20 AM48 °FScattered clouds.17 mph87%29.89 "HgN/A
6:50 AM48 °FScattered clouds.18 mph87%29.89 "HgN/A
6:20 AM48 °FPassing clouds.10 mph87%29.89 "HgN/A
5:50 AM46 °FScattered clouds.14 mph87%29.89 "HgN/A
5:20 AM48 °FSprinkles. Passing clouds.14 mph87%29.89 "HgN/A
4:20 AM48 °FPassing clouds.12 mph94%29.86 "HgN/A
Weather by CustomWeather, © 2015

See weather overviewHow to use our weather pages